Durango, CO

11:31 AM MDT on July 27, 2017 (GMT -0600)
Durango-La Plata County

Weather History for KDRO - January, 2013

Change the Weather History Date:

Friday, January 4, 2013

  Actual Average Record
Temperature  
Mean Temperature 7 °F 23 °F  
Max Temperature 25 °F 37 °F 54 °F (1981)
Min Temperature -12 °F 10 °F -12 °F (2013)
Degree Days  
Heating Degree Days 58 42  
Month to date heating degree days 227 167  
Since 1 July heating degree days 2965 3041  
Cooling Degree Days 0 0  
Month to date cooling degree days 0 0  
Year to date cooling degree days 0 0  
Moisture  
Dew Point 0 °F    
Average Humidity 75    
Maximum Humidity 100    
Minimum Humidity 50    
Precipitation  
Precipitation 0.00 in 0.04 in 1.20 in (1991)
Month to date precipitation T 0.15  
Year to date precipitation T 0.15  
Sea Level Pressure  
Sea Level Pressure 30.52 in    
Wind  
Wind Speed 3 mph (NNE)    
Max Wind Speed 10 mph    
Max Gust Speed 13 mph    
Visibility 10 miles    
Events      
T = Trace of Precipitation, MM = Missing Value Source: NWS Daily Summary

Daily Weather History Graph

Daily Weather History Graph

Search for Another Location

Airport or City:

Trip Planner

Search our weather history database for the weather conditions in past years. The results will help you decide how hot, cold, wet, or windy it might be!

Date:

Astronomy

Jan. 04, 2013 Rise Set
Actual Time 7:25 AM MST 5:07 PM MST
Civil Twilight 6:56 AM MST 5:36 PM MST
Nautical Twilight 6:23 AM MST 6:08 PM MST
Astronomical Twilight 5:52 AM MST 6:40 PM MST
Moon No Moon Rise 11:20 AM MST (1/4)
Length of Visible Light 10h 40m
Length of Day
9h 42m
Waning Gibbous, 54% of the Moon is Illuminated
Jan 4
Waning Gibbous
Jan 4
Last Quarter
Jan 11
New
Jan 18
First Quarter
Jan 26
Full

Hourly Weather History & Observations

Time (MST) Temp. Windchill Dew Point Humidity Pressure Visibility Wind Dir Wind Speed Gust Speed Precip Events Conditions
12:53 AM -0.9 °F -8.9 °F -6.0 °F 79% 30.53 in 10.0 mi North 3.5 mph - N/A   Clear
1:53 AM -2.9 °F - -6.0 °F 87% 30.53 in 10.0 mi Calm Calm - N/A   Clear
2:53 AM -2.0 °F -12.2 °F -6.0 °F 83% 30.53 in 10.0 mi NNE 4.6 mph - N/A   Clear
3:53 AM -2.0 °F -10.1 °F -5.1 °F 87% 30.55 in 10.0 mi NE 3.5 mph - N/A   Clear
4:53 AM -4.0 °F -14.6 °F -9.0 °F 79% 30.57 in 10.0 mi North 4.6 mph - N/A   Clear
5:53 AM -9.0 °F - -13.0 °F 83% 30.57 in 10.0 mi Calm Calm - N/A   Clear
6:53 AM -11.0 °F - -11.9 °F 96% 30.61 in 10.0 mi Calm Calm - N/A   Clear
7:53 AM -6.0 °F -16.9 °F -8.0 °F 91% 30.61 in 10.0 mi NNE 4.6 mph - N/A   Clear
8:53 AM -2.9 °F - -5.1 °F 90% 30.63 in 10.0 mi Calm Calm - N/A   Clear
9:53 AM 5.0 °F - 1.0 °F 84% 30.60 in 10.0 mi Calm Calm - N/A   Clear
10:53 AM 12.0 °F - 3.9 °F 70% 30.57 in 10.0 mi Calm Calm - N/A   Clear
11:53 AM 18.0 °F 11.1 °F 5.0 °F 57% 30.53 in 10.0 mi NE 4.6 mph - N/A   Clear
12:53 PM 19.9 °F 12.1 °F 6.1 °F 55% 30.45 in 10.0 mi East 5.8 mph - N/A   Clear
1:53 PM 21.9 °F 15.7 °F 8.1 °F 55% 30.42 in 10.0 mi NE 4.6 mph - N/A   Clear
2:53 PM 24.1 °F - 9.0 °F 53% 30.40 in 10.0 mi Calm Calm - N/A   Clear
3:53 PM 23.0 °F 13.9 °F 9.0 °F 55% 30.40 in 10.0 mi SSW 8.1 mph - N/A   Clear
4:53 PM 21.0 °F 11.4 °F 9.0 °F 60% 30.43 in 10.0 mi SW 8.1 mph - N/A   Clear
5:53 PM 17.1 °F 7.6 °F 8.1 °F 68% 30.49 in 10.0 mi SW 6.9 mph - N/A   Clear
6:53 PM 12.9 °F - 6.1 °F 74% 30.54 in 10.0 mi Calm Calm - N/A   Clear
7:53 PM 12.0 °F 2.7 °F 5.0 °F 73% 30.52 in 10.0 mi North 5.8 mph - N/A   Clear
8:53 PM 6.1 °F -0.9 °F 1.9 °F 83% 30.54 in 10.0 mi ENE 3.5 mph - N/A   Clear
9:53 PM 6.1 °F -0.9 °F 1.0 °F 80% 30.51 in 10.0 mi North 3.5 mph - N/A   Clear
10:53 PM 3.9 °F -5.3 °F -0.0 °F 84% 30.50 in 10.0 mi North 4.6 mph - N/A   Clear
11:53 PM -0.0 °F - -4.0 °F 83% 30.50 in 10.0 mi Calm Calm - N/A   Clear